Temperature
17 18 17 17 17 17 17 17 17 17 17 17 17 17 17 17 17 17 18 18 18 18 18 18 18 18 17 17 17 17 17 17 17 17 17 17 17 17 17 17 16 16 16
17 17 17 17 17 17 17 17 17 17 17 17 17 17 17 17 17 17 17 17 17 17 17 17 17 18 18 17 17 17 17 17 17 17 17 17 17 17 17 17 17 16 16
17 17 16 16 17 17 17 17 16 16 16 16 16 16 16 16 17 17 17 17 17 17 17 17 17 17 18 17 17 17 17 17 17 17 17 17 17 17 17 17 17 17 16
16 16 16 16 16 16 16 16 16 16 16 16 16 16 16 16 16 16 16 17 17 17 17 17 17 17 17 17 17 17 17 17 17 17 17 17 17 17 17 17 17 17 16
16 16 16 16 16 16 16 16 16 15 15 15 15 16 16 16 16 16 16 16 17 17 17 17 17 17 17 17 17 17 17 17 17 17 17 17 17 17 17 17 17 17 17
16 15 15 15 15 15 15 15 15 15 15 15 15 15 15 15 15 16 16 16 16 17 17 17 17 17 17 17 17 17 17 17 17 17 17 17 17 17 17 17 17 17 17
15 15 15 15 14 14 14 14 14 14 14 14 14 15 15 15 16 16 16 16 16 16 16 17 17 17 17 17 17 16 16 17 17 17 17 17 17 17 17 17 16 16 16
14 14 14 14 14 14 14 14 14 14 14 13 13 13 14 15 15 15 16 16 16 16 16 16 16 16 17 17 17 17 16 17 17 17 17 17 17 17 17 17 16 16 16
13 13 13 13 13 13 13 13 13 13 13 13 13 13 13 13 13 14 15 15 15 15 16 16 16 16 16 16 17 17 17 17 17 17 17 17 17 17 17 17 17 16 16
13 12 12 12 12 12 13 13 13 13 13 13 13 13 12 12 12 13 14 14 14 15 15 15 15 16 16 16 16 17 17 17 17 17 17 17 17 17 17 17 17 16 16
12 12 12 12 12 12 12 12 12 12 12 12 12 12 12 12 12 12 13 14 14 15 15 15 15 16 16 16 16 17 17 17 17 16 17 16 17 17 17 16 16 16 16
11 11 11 11 11 11 11 11 12 12 12 12 12 12 12 12 12 12 12 13 13 14 15 15 15 15 16 16 16 17 17 17 16 17 17 16 16 16 16 16 16 16 16
11 11 10 10 10 10 10 11 11 11 11 11 11 12 12 12 12 12 12 12 12 13 14 15 15 15 16 16 16 16 16 16 16 16 17 16 16 16 16 16 16 16 16
10 10 10 10 10 10 10 10 10 10 11 11 11 11 11 11 11 11 11 11 12 12 13 14 14 15 15 16 16 16 16 16 16 16 17 17 16 16 16 16 16 16 16
10 10 10 9 9 9 9 9 10 10 10 10 10 11 11 11 11 11 11 11 11 11 12 13 14 14 15 15 16 16 16 16 16 16 16 16 16 16 16 16 16 16 16
10 9 9 9 9 9 9 9 9 9 9 10 10 10 10 10 11 11 11 11 11 11 11 12 13 13 14 14 15 15 16 16 16 16 16 16 16 16 16 16 16 16 16
9 9 9 9 9 9 9 9 9 9 9 9 9 10 10 10 10 10 10 11 11 11 11 12 12 13 13 14 14 15 15 16 16 16 16 16 16 16 16 16 16 16 16
9 9 9 9 9 9 9 8 9 9 9 9 9 9 9 9 10 10 10 10 11 11 11 11 12 12 12 13 14 14 15 15 15 16 16 16 16 16 16 15 15 16 16
9 9 9 9 9 9 9 8 8 8 8 9 9 9 9 9 9 9 10 10 10 10 10 11 11 12 12 12 13 14 14 15 15 15 15 15 15 15 15 15 15 15 15
9 9 8 8 8 8 8 8 8 8 8 8 8 8 8 9 9 9 9 10 10 10 10 10 11 11 11 12 12 13 13 14 14 14 15 15 15 15 15 15 15 15 15
9 8 8 8 8 8 8 8 8 8 8 8 8 8 8 8 8 9 9 9 9 10 10 10 10 11 11 11 12 12 12 13 13 13 14 14 14 14 15 15 15 15 15
8 8 8 8 8 8 8 8 8 8 8 8 8 8 8 8 8 8 8 9 9 9 10 10 10 10 11 11 11 12 12 12 12 12 13 13 13 13 14 14 14 15 15
8 8 8 8 8 8 8 8 8 7 7 8 8 8 8 8 8 8 8 8 9 9 9 10 10 10 11 11 11 11 12 12 12 12 12 12 12 13 13 13 14 14 14
8 8 8 8 8 8 8 8 7 7 7 7 7 7 8 8 8 8 8 8 9 9 9 9 10 10 10 11 11 11 11 12 12 12 12 12 11 12 12 12 12 13 13
8 8 8 8 8 8 8 7 7 7 7 7 7 7 7 7 8 7 7 8 8 9 9 9 9 10 10 10 10 11 11 11 11 11 11 12 11 11 11 11 12 12 12
8 8 8 8 7 7 7 7 7 7 7 7 7 7 7 7 7 7 7 7 8 8 9 9 9 9 10 10 10 10 11 11 11 11 11 11 11 11 10 11 11 11 12
Wind_Speed
4 3 4 5 5 5 5 4 5 6 6 8 10 11 11 12 13 12 12 16 18 19 19 20 22 24 25 25 25 25 24 24 23 23 22 21 20 20 19 18 18 17 17
3 2 3 3 3 4 4 3 4 4 4 4 7 9 10 11 12 13 13 15 18 19 20 21 22 24 25 26 26 27 26 26 25 24 24 23 22 21 21 20 19 19 18
2 2 2 2 3 4 3 2 3 3 4 5 7 8 8 10 11 13 14 14 15 17 20 21 21 22 23 26 27 27 28 27 27 26 26 25 24 23 23 22 21 20 20
1 1 1 2 2 2 2 2 2 2 4 5 6 7 7 7 10 12 13 14 14 15 17 21 22 23 23 25 27 28 28 29 28 28 28 27 26 25 24 23 23 22 22
0 1 1 2 2 1 2 2 1 2 4 5 6 7 7 8 9 10 11 13 16 16 16 18 21 22 24 25 26 28 28 28 29 29 28 28 27 27 26 25 25 24 23
2 1 1 2 1 1 2 2 3 2 3 4 6 7 7 8 8 9 11 11 14 17 17 17 17 18 22 24 25 28 28 29 29 29 29 29 29 28 27 27 26 25 25
3 2 1 2 1 2 3 3 2 2 3 2 3 5 6 8 9 9 9 9 11 14 16 17 16 16 15 21 25 27 27 28 29 29 29 30 29 29 28 28 28 27 26
4 3 2 2 2 2 3 3 2 2 2 1 2 3 4 4 3 6 6 7 9 8 11 15 15 15 15 16 19 25 27 28 29 29 29 30 30 29 29 29 28 28 28
5 4 3 3 3 3 3 4 3 4 3 2 3 3 2 3 4 3 4 5 6 7 9 9 13 15 17 17 18 22 27 28 29 28 28 29 30 30 30 29 29 29 28
5 5 4 4 4 3 4 4 3 4 4 4 3 4 5 4 3 4 3 3 5 7 8 9 10 12 16 17 18 21 24 27 29 29 29 29 30 30 30 30 30 29 29
5 5 5 4 4 3 4 4 3 4 4 4 4 3 3 3 5 5 6 5 4 5 6 7 7 7 12 15 16 19 24 26 27 28 29 29 30 29 29 29 29 29 29
4 5 5 4 4 4 4 4 4 4 4 5 4 4 3 3 3 4 5 6 6 5 5 5 6 6 8 12 17 20 23 24 25 26 27 28 28 29 29 29 29 28 28
4 6 5 4 4 5 5 5 4 5 5 5 6 5 5 5 4 4 4 5 5 5 4 3 3 4 5 8 12 17 20 23 23 24 25 26 26 27 28 28 28 27 27
6 7 7 6 6 6 6 5 5 6 5 6 7 6 5 6 5 4 4 4 5 4 3 4 2 3 3 4 8 12 12 18 20 22 22 23 24 25 26 27 27 26 26
6 7 7 7 7 7 7 6 5 7 6 6 7 7 6 6 5 5 5 4 4 4 4 3 2 2 2 1 3 6 8 12 17 19 20 20 21 23 24 25 25 25 24
7 7 8 8 8 7 7 6 6 7 7 7 6 7 7 6 5 5 5 5 5 5 5 3 2 3 3 1 0 3 5 8 11 15 17 18 19 20 21 22 23 23 23
8 8 9 8 9 9 8 7 8 8 8 9 8 8 9 7 6 6 5 5 5 5 7 5 3 2 2 1 1 2 3 4 5 9 12 14 15 16 17 18 19 20 20
8 9 9 9 10 9 8 8 9 9 9 10 10 9 10 7 8 6 6 7 6 6 6 7 3 2 2 1 2 3 3 4 5 8 10 11 12 13 14 15 15 16 17
9 9 9 9 10 10 10 10 10 10 10 11 10 10 10 9 9 8 8 7 7 6 6 6 5 3 2 2 2 3 5 4 5 8 10 11 12 12 12 13 13 13 14
9 10 10 10 10 10 10 10 10 10 11 11 11 11 11 10 11 10 8 9 8 7 7 6 6 4 3 3 4 4 4 4 4 5 7 9 11 12 12 12 12 13 13
10 10 10 10 10 9 10 10 10 11 10 11 11 11 11 13 14 11 9 9 9 8 7 6 6 4 4 4 5 4 5 6 4 4 6 5 6 7 8 10 10 12 13
10 10 10 11 11 10 12 14 12 10 10 11 11 11 11 13 15 16 16 15 13 11 10 8 6 6 6 5 5 6 6 6 4 5 5 4 4 6 5 6 10 12 13
10 10 10 10 11 12 15 16 16 12 11 11 12 11 11 11 12 11 13 16 16 17 14 10 9 8 7 7 8 8 8 6 4 7 6 4 4 4 4 8 11 12 13
9 10 11 11 11 12 14 15 15 12 11 12 12 13 12 12 12 11 11 11 11 13 14 12 10 9 8 7 8 8 7 6 5 5 5 4 4 3 4 6 10 12 13
10 10 10 11 11 12 13 14 12 8 9 12 12 12 13 13 14 14 12 11 11 10 11 13 11 10 11 10 9 7 9 9 6 5 3 4 4 4 3 3 7 11 13
10 10 11 10 10 11 12 13 11 7 9 9 9 10 14 14 14 14 12 12 12 10 9 9 9 9 10 10 13 11 10 9 6 5 5 5 6 5 4 2 3 6 9
Wind_Direction
223 223 240 248 254 259 256 255 253 251 250 247 244 243 244 240 239 234 237 244 241 235 233 232 228 221 216 211 210 209 207 205 203 199 197 196 195 193 192 192 191 190 188
223 220 238 246 251 255 253 250 256 257 256 254 253 250 248 247 246 240 238 243 243 239 235 233 232 226 221 217 215 212 210 209 206 203 201 200 199 197 196 196 195 194 194
205 203 227 245 251 255 263 270 275 272 271 265 262 261 256 249 248 242 242 242 243 242 238 234 233 228 223 222 220 216 212 211 208 206 204 203 202 201 200 199 199 198 198
199 193 227 249 262 270 268 265 265 275 271 269 267 265 259 254 252 248 245 244 242 243 239 235 232 228 226 225 222 220 217 213 211 209 207 205 204 204 203 201 201 201 201
268 214 250 265 277 279 278 278 256 248 268 274 271 265 258 254 251 251 246 243 241 239 237 236 232 228 227 228 226 224 221 217 213 212 210 208 207 206 205 205 204 204 203
10 351 279 290 299 289 285 280 273 257 260 273 284 280 267 257 250 245 245 243 240 239 236 234 232 231 230 230 230 228 225 222 217 215 213 211 209 207 206 207 207 206 206
4 348 318 313 301 272 269 269 265 276 275 275 291 294 282 260 250 246 242 240 240 239 236 231 228 226 228 230 229 228 227 225 222 218 214 213 211 208 207 207 208 208 208
348 337 320 300 291 281 283 270 240 252 268 250 250 301 310 312 289 254 243 240 242 240 238 234 228 225 225 227 228 228 226 226 225 221 216 213 212 210 208 208 208 209 209
335 329 315 295 287 267 267 265 235 225 246 261 226 233 274 290 313 294 262 250 248 244 243 237 230 227 225 226 227 228 225 225 225 224 219 214 212 210 208 209 209 210 211
315 311 304 296 288 274 266 265 242 222 221 245 255 236 239 251 280 307 303 279 270 259 252 245 237 228 224 224 224 222 222 223 224 224 221 216 212 210 209 210 211 211 212
306 299 292 288 283 274 268 264 259 237 223 229 230 241 251 252 245 260 288 302 299 273 261 250 242 232 225 222 223 222 219 220 221 221 219 215 212 209 210 211 214 214 213
297 292 288 275 272 268 266 263 254 246 238 237 236 232 231 242 251 253 272 293 297 291 279 261 247 238 230 223 223 219 217 217 217 217 216 214 211 209 210 212 215 216 216
283 285 290 278 271 263 264 262 256 253 243 240 241 239 236 240 245 250 266 281 287 290 286 272 264 259 241 223 221 217 215 211 212 214 213 212 210 209 208 209 212 215 216
268 274 278 273 271 268 268 260 258 257 249 244 247 244 245 247 242 240 244 269 291 289 279 282 282 271 261 231 217 208 214 209 209 211 210 208 207 207 205 207 209 211 214
273 272 271 272 272 269 264 258 255 260 258 252 250 248 246 249 244 244 244 243 257 285 290 293 301 322 318 276 218 201 206 208 206 206 203 203 203 203 202 204 205 207 209
274 280 279 275 273 270 266 258 257 258 258 257 251 248 248 249 248 243 242 243 241 248 271 288 291 308 321 327 163 174 177 182 189 193 194 196 198 198 198 200 201 204 206
279 278 277 277 274 271 267 260 257 257 255 259 257 250 251 248 246 246 242 243 243 241 257 271 267 286 286 225 106 107 121 132 150 167 175 183 188 189 191 194 197 200 203
280 277 276 276 275 272 265 259 260 260 254 255 256 251 253 250 242 242 239 241 241 239 246 261 264 263 262 211 146 124 115 111 115 136 149 158 166 170 176 181 186 190 194
282 281 275 273 272 271 268 263 258 258 255 254 253 250 250 246 245 241 236 238 239 241 240 251 258 251 244 195 150 128 119 111 105 116 121 132 142 149 156 165 172 178 182
281 279 276 272 269 269 268 267 263 259 257 255 253 250 249 244 242 241 237 236 234 235 235 244 245 244 234 191 167 160 146 129 119 110 106 110 118 121 130 143 154 161 165
284 278 279 278 273 269 265 261 258 259 257 258 256 252 248 245 242 238 234 230 226 227 228 233 236 231 215 193 186 169 159 140 118 129 123 112 113 110 113 122 133 145 152
287 285 281 280 278 273 268 265 264 263 259 257 258 256 252 254 252 245 238 231 221 219 221 222 230 228 215 201 186 170 160 159 155 148 132 115 108 107 98 107 127 136 142
288 288 285 282 278 275 271 271 270 266 259 256 254 253 255 251 240 241 242 239 232 225 217 214 221 225 216 199 187 180 176 170 154 154 137 121 108 103 87 100 121 130 135
288 287 286 283 281 279 276 273 274 272 263 258 253 249 247 249 243 234 238 239 236 232 225 222 223 225 220 204 192 185 167 144 121 143 140 128 124 106 88 87 110 124 130
293 290 286 284 282 283 278 276 275 273 264 262 258 251 244 245 239 229 231 237 238 238 232 223 219 223 213 201 184 172 166 161 159 159 140 124 129 112 95 82 91 115 126
290 292 289 287 282 281 281 281 281 270 265 266 263 256 245 239 236 226 226 228 231 231 223 216 216 221 215 201 189 187 182 177 164 160 157 131 138 135 123 99 93 107 114
Height
1538 1539 1539 1539 1539 1540 1539 1539 1540 1540 1540 1541 1541 1542 1543 1544 1545 1546 1547 1549 1551 1552 1554 1556 1558 1560 1563 1565 1567 1570 1572 1575 1577 1580 1582 1585 1587 1590 1592 1595 1597 1599 1601
1536 1536 1536 1537 1536 1536 1536 1535 1535 1535 1535 1536 1536 1537 1537 1538 1538 1539 1541 1543 1545 1547 1549 1551 1553 1555 1557 1560 1563 1566 1568 1571 1574 1576 1579 1582 1585 1587 1590 1592 1595 1597 1600
1533 1533 1533 1533 1533 1532 1532 1531 1530 1530 1530 1530 1531 1531 1531 1532 1532 1533 1535 1537 1539 1540 1542 1545 1547 1549 1552 1555 1557 1561 1564 1567 1570 1573 1576 1579 1582 1584 1587 1590 1593 1595 1598
1530 1530 1530 1530 1529 1529 1528 1527 1527 1526 1526 1526 1525 1525 1525 1525 1526 1526 1527 1529 1531 1534 1536 1538 1540 1543 1546 1549 1551 1555 1558 1561 1565 1568 1571 1575 1578 1581 1584 1587 1590 1593 1595
1528 1528 1527 1527 1526 1525 1525 1524 1523 1523 1522 1521 1520 1519 1519 1519 1519 1520 1520 1522 1524 1527 1529 1531 1534 1536 1539 1542 1545 1549 1552 1556 1559 1563 1567 1570 1574 1577 1580 1584 1587 1589 1592
1526 1525 1524 1524 1523 1522 1522 1521 1520 1519 1519 1517 1516 1515 1514 1513 1513 1513 1514 1515 1517 1519 1521 1523 1526 1529 1531 1535 1538 1542 1546 1550 1554 1557 1561 1565 1569 1572 1576 1579 1583 1586 1589
1523 1522 1522 1521 1520 1519 1519 1518 1517 1516 1515 1514 1512 1510 1509 1508 1507 1507 1508 1508 1510 1512 1513 1516 1518 1521 1524 1527 1531 1535 1539 1543 1547 1551 1555 1559 1563 1567 1571 1575 1578 1582 1585
1520 1519 1518 1517 1516 1516 1515 1514 1514 1512 1512 1511 1510 1508 1505 1504 1503 1502 1502 1503 1504 1505 1507 1508 1510 1513 1516 1519 1523 1528 1532 1536 1540 1544 1548 1553 1557 1562 1566 1569 1573 1577 1580
1516 1515 1514 1513 1512 1511 1511 1511 1510 1509 1508 1509 1508 1507 1505 1502 1500 1499 1498 1498 1499 1500 1501 1502 1503 1506 1508 1512 1516 1521 1525 1529 1533 1538 1542 1547 1551 1556 1560 1564 1568 1572 1575
1513 1511 1510 1509 1508 1507 1507 1506 1506 1505 1505 1505 1505 1504 1504 1502 1500 1497 1495 1495 1495 1495 1495 1496 1497 1499 1502 1505 1509 1513 1518 1522 1527 1531 1536 1540 1545 1549 1553 1558 1562 1566 1570
1509 1508 1506 1504 1503 1502 1502 1501 1501 1501 1500 1500 1500 1500 1499 1498 1497 1496 1492 1491 1491 1490 1490 1490 1491 1493 1496 1499 1502 1506 1511 1516 1520 1525 1529 1534 1538 1543 1547 1551 1556 1560 1563
1505 1504 1502 1500 1499 1498 1497 1497 1496 1496 1496 1496 1496 1496 1496 1495 1494 1493 1490 1488 1487 1486 1485 1485 1486 1487 1490 1493 1496 1500 1504 1509 1514 1518 1523 1528 1532 1536 1540 1545 1549 1553 1557
1501 1499 1497 1496 1494 1493 1492 1492 1491 1491 1491 1491 1491 1491 1491 1491 1490 1489 1488 1486 1484 1482 1481 1481 1482 1483 1485 1488 1490 1494 1498 1502 1507 1512 1517 1521 1526 1530 1534 1538 1543 1547 1551
1496 1494 1492 1491 1489 1488 1487 1486 1486 1486 1486 1485 1486 1486 1486 1486 1486 1485 1485 1484 1481 1479 1478 1478 1478 1479 1481 1483 1486 1489 1492 1497 1501 1506 1511 1516 1520 1524 1528 1533 1537 1541 1545
1491 1489 1487 1486 1484 1483 1482 1481 1480 1480 1480 1480 1480 1480 1480 1481 1481 1481 1481 1481 1480 1478 1476 1475 1475 1476 1477 1479 1481 1484 1488 1492 1496 1501 1506 1510 1515 1519 1523 1527 1531 1535 1539
1486 1484 1482 1481 1479 1478 1477 1475 1474 1474 1474 1474 1474 1474 1474 1475 1475 1476 1476 1476 1476 1476 1474 1472 1473 1473 1474 1475 1477 1480 1483 1487 1491 1496 1501 1505 1509 1513 1518 1522 1526 1530 1534
1481 1479 1477 1475 1474 1472 1471 1470 1469 1468 1468 1467 1467 1467 1468 1469 1469 1470 1470 1471 1471 1471 1470 1469 1470 1470 1471 1472 1474 1476 1479 1483 1487 1492 1496 1500 1504 1508 1513 1517 1521 1525 1529
1477 1474 1472 1470 1468 1467 1465 1464 1463 1462 1461 1461 1461 1461 1461 1462 1463 1464 1465 1465 1466 1467 1467 1466 1466 1467 1468 1469 1471 1473 1476 1480 1483 1488 1492 1496 1500 1504 1508 1512 1516 1520 1524
1471 1469 1466 1464 1462 1461 1459 1458 1457 1456 1455 1454 1454 1454 1454 1455 1456 1457 1458 1459 1461 1462 1462 1462 1462 1463 1464 1466 1468 1471 1473 1476 1480 1484 1488 1492 1496 1500 1503 1507 1511 1515 1519
1465 1463 1460 1458 1456 1454 1453 1452 1450 1449 1448 1448 1447 1447 1447 1448 1449 1450 1452 1453 1455 1456 1457 1458 1458 1459 1461 1462 1464 1467 1470 1473 1477 1480 1484 1488 1492 1496 1499 1503 1507 1511 1515
1460 1457 1454 1452 1450 1448 1446 1445 1444 1442 1442 1441 1440 1440 1441 1441 1442 1443 1445 1447 1449 1450 1452 1453 1454 1455 1456 1458 1461 1463 1467 1470 1474 1477 1481 1485 1488 1492 1496 1499 1503 1507 1511
1454 1451 1448 1446 1444 1442 1440 1438 1437 1435 1434 1433 1433 1433 1433 1434 1435 1436 1438 1440 1442 1444 1446 1447 1449 1450 1452 1454 1457 1459 1462 1466 1470 1474 1478 1482 1485 1489 1492 1496 1500 1504 1508
1448 1445 1443 1440 1437 1435 1434 1432 1430 1428 1427 1426 1425 1425 1426 1426 1427 1429 1431 1433 1435 1437 1439 1442 1443 1445 1448 1450 1452 1455 1458 1462 1466 1470 1475 1479 1483 1486 1490 1493 1497 1501 1505
1443 1440 1437 1434 1431 1429 1427 1425 1423 1421 1419 1418 1418 1417 1417 1418 1420 1421 1423 1425 1427 1430 1433 1435 1438 1440 1443 1446 1448 1451 1454 1458 1463 1467 1472 1476 1480 1484 1487 1491 1495 1498 1502
1438 1435 1431 1428 1425 1423 1421 1418 1416 1414 1412 1411 1410 1409 1409 1410 1411 1414 1416 1417 1420 1423 1426 1429 1432 1435 1437 1440 1443 1446 1449 1454 1458 1462 1467 1471 1476 1481 1485 1489 1492 1496 1500
1433 1430 1426 1423 1420 1417 1414 1412 1409 1407 1404 1403 1402 1402 1401 1402 1403 1406 1408 1410 1413 1416 1420 1423 1426 1429 1431 1434 1437 1441 1445 1449 1453 1457 1462 1467 1472 1477 1482 1486 1490 1494 1497